This is the latest recevied weather packets stored in our database for station/object KJ6APE. If no packets are shown the sender has not sent any weather packets the latest 10 day(s).
| Time | Temp. | Humidity | Pressure | Rain* | Wind** | Luminosity | Snow |
|---|---|---|---|---|---|---|---|
| 1777414915 | 22.22° C | 47% | 1018 hPa | 0 mm | - | 192 W/m² | - |
| 1777414615 | 22.22° C | 44% | 1018 hPa | 0 mm | - | 179 W/m² | - |
| 1777414310 | 22.22° C | 43% | 1018.3 hPa | 0 mm | - | 193 W/m² | - |
| 1777414005 | 23.33° C | 40% | 1018.3 hPa | 0 mm | - | 206 W/m² | - |
| 1777413700 | 24.44° C | 37% | 1018.5 hPa | 0 mm | - | 1020 W/m² | - |
| 1777413396 | 24.44° C | 40% | 1018.3 hPa | 0 mm | - | 1037 W/m² | - |
| 1777413092 | 24.44° C | 40% | 1018.5 hPa | 0 mm | - | 1039 W/m² | - |
| 1777412787 | 23.89° C | 39% | 1018.6 hPa | 0 mm | - | 1034 W/m² | - |
| 1777412487 | 23.89° C | 39% | 1018.5 hPa | 0 mm | - | 1033 W/m² | - |
| 1777412184 | 23.33° C | 40% | 1018.6 hPa | 0 mm | - | 1002 W/m² | - |
| 1777411881 | 23.89° C | 40% | 1018.7 hPa | 0 mm | - | 1014 W/m² | - |
| 1777411579 | 23.89° C | 38% | 1018.9 hPa | 0 mm | - | 1043 W/m² | - |
| 1777411275 | 24.44° C | 41% | 1019 hPa | 0 mm | - | 1047 W/m² | - |
| 1777410969 | 23.89° C | 38% | 1018.9 hPa | 0 mm | - | 1057 W/m² | - |
| 1777410668 | 23.33° C | 42% | 1018.9 hPa | 0 mm | - | 1044 W/m² | - |
| 1777410363 | 23.33° C | 43% | 1018.9 hPa | 0 mm | - | 1034 W/m² | - |
| 1777410057 | 22.78° C | 43% | 1019.1 hPa | 0 mm | - | 1016 W/m² | - |
| 1777409757 | 21.67° C | 44% | 1019 hPa | 0 mm | - | 1016 W/m² | - |
| 1777409453 | 22.22° C | 42% | 1019.2 hPa | 0 mm | - | 825 W/m² | - |
| 1777409149 | 22.78° C | 43% | 1019 hPa | 0 mm | - | 218 W/m² | - |
| 1777408845 | 22.78° C | 42% | 1019.4 hPa | 0 mm | - | 732 W/m² | - |
| 1777408542 | 22.78° C | 42% | 1019.3 hPa | 0 mm | - | 1059 W/m² | - |
| 1777408242 | 22.78° C | 42% | 1019.3 hPa | 0 mm | - | 1072 W/m² | - |
| 1777407937 | 22.78° C | 42% | 1019.4 hPa | 0 mm | - | 804 W/m² | - |
| 1777407635 | 22.78° C | 42% | 1019.4 hPa | 0 mm | - | 992 W/m² | - |
* Rain latest hour (hover to see other rain measurements)
** Current wind speed in m/s (hover to see current wind gust speed)